User: anonymous   Login
Location: Unspecified
(0.0000°N, 0.0000°E)
Time: 03:26:32
(UTC+02:00)
Language:

GPS 2-12 Rocket1 - Orbit

View from above orbital plane
View from above orbital plane
View from above satellite
View from above satellite

Ground track
Ground track

The orbit data is extracted from the following two-line orbital elements,

1 21891U 92009B   16119.49025618  .00000736  00000-0  39589-4 0  9998
2 21891  19.9957 182.1477 0047522   2.9580 357.1115 14.82626956304635
Epoch (UTC): 28 April 2016 11:45:58
Eccentricity: 0.0047522
inclination: 19.9957°
perigee height: 588 km
apogee height: 654 km
right ascension of ascending node: 182.1477°
argument of perigee: 2.9580°
revolutions per day: 14.82626956
mean anomaly at epoch: 357.1115°
orbit number at epoch: 30463

The dashed part of the orbit path shows where the satellite is in the earth's shadow,  

DLR